Atlanta, GA

10:47 AM EDT on May 27, 2017 (GMT -0400)
The Hartsfield Atlanta International

Weather History for KATL - August, 2014

Change the Weather History Date:

Tuesday, August 5, 2014

  Actual Average Record
Temperature  
Mean Temperature 80 °F 80 °F  
Max Temperature 89 °F 89 °F 98 °F (1980)
Min Temperature 70 °F 71 °F 60 °F (1912)
Degree Days  
Heating Degree Days 0 0  
Month to date heating degree days 0 0  
Since 1 June heating degree days 0 2  
Since 1 July heating degree days 0 0  
Cooling Degree Days 15 15  
Month to date cooling degree days 64 75  
Year to date cooling degree days 1161 1167  
Since 1 June cooling degree days 878 917  
Growing Degree Days 30 (Base 50)    
Moisture  
Dew Point 61 °F    
Average Humidity 57    
Maximum Humidity 84    
Minimum Humidity 29    
Precipitation  
Precipitation 0.00 in 0.13 in 1.80 in (1889)
Month to date precipitation T 0.64  
Year to date precipitation 28.17 30.57  
Sea Level Pressure  
Sea Level Pressure 30.04 in    
Wind  
Wind Speed 6 mph (NNW)    
Max Wind Speed 16 mph    
Max Gust Speed 23 mph    
Visibility 10 miles    
Events      
T = Trace of Precipitation, MM = Missing Value Source: NWS Daily Summary

Daily Weather History Graph

Daily Weather History Graph

Search for Another Location

Airport or City:

Trip Planner

Search our weather history database for the weather conditions in past years. The results will help you decide how hot, cold, wet, or windy it might be!

Date:

Astronomy

Aug. 05, 2014 Rise Set
Actual Time 6:52 AM EDT 8:34 PM EDT
Civil Twilight 6:25 AM EDT 9:01 PM EDT
Nautical Twilight 5:53 AM EDT 9:33 PM EDT
Astronomical Twilight 5:18 AM EDT 10:07 PM EDT
Moon 3:47 PM EDT (8/5) 1:39 AM EDT (8/5)
Length of Visible Light 14h 35m
Length of Day
13h 41m
Waxing Gibbous, 67% of the Moon is Illuminated
Aug 5
Waxing Gibbous
Aug 10
Full
Aug 17
Last Quarter
Aug 25
New
Sep 2
First Quarter

Hourly Weather History & Observations

Time (EDT) Temp. Heat Index Dew Point Humidity Pressure Visibility Wind Dir Wind Speed Gust Speed Precip Events Conditions
12:52 AM 75.0 °F - 64.0 °F 69% 30.04 in 10.0 mi Calm Calm - N/A   Mostly Cloudy
1:52 AM 73.0 °F - 64.9 °F 76% 30.02 in 10.0 mi Calm Calm - N/A   Scattered Clouds
2:52 AM 73.0 °F - 64.9 °F 76% 30.01 in 10.0 mi Calm Calm - N/A   Scattered Clouds
3:52 AM 72.0 °F - 66.0 °F 81% 30.01 in 10.0 mi ENE 4.6 mph - N/A   Scattered Clouds
4:52 AM 71.1 °F - 64.9 °F 81% 30.01 in 10.0 mi ENE 5.8 mph - N/A   Partly Cloudy
5:52 AM 71.6 °F - 66.2 °F 83% 30.05 in 10.0 mi East 3.5 mph - N/A   Partly Cloudy
6:52 AM 71.1 °F - 66.0 °F 84% 30.04 in 9.0 mi East 3.5 mph - N/A   Scattered Clouds
7:52 AM 73.0 °F - 66.9 °F 81% 30.06 in 9.0 mi East 3.5 mph - N/A   Scattered Clouds
8:52 AM 75.0 °F - 66.9 °F 76% 30.07 in 9.0 mi Calm Calm - N/A   Partly Cloudy
9:52 AM 79.0 °F - 68.0 °F 69% 30.07 in 10.0 mi Calm Calm - N/A   Partly Cloudy
10:52 AM 82.9 °F 85.4 °F 66.9 °F 58% 30.08 in 10.0 mi West 5.8 mph - N/A   Scattered Clouds
11:52 AM 84.9 °F 84.4 °F 59.0 °F 41% 30.08 in 10.0 mi NNW 9.2 mph - N/A   Mostly Cloudy
12:16 PM 84.2 °F 85.0 °F 62.6 °F 48% 30.11 in 10.0 mi WSW 6.9 mph - N/A   Mostly Cloudy
12:52 PM 84.9 °F 84.4 °F 59.0 °F 41% 30.08 in 10.0 mi WNW 8.1 mph - N/A   Mostly Cloudy
1:52 PM 86.0 °F 85.4 °F 59.0 °F 40% 30.06 in 10.0 mi West 9.2 mph - N/A   Scattered Clouds
2:52 PM 88.0 °F 86.5 °F 55.9 °F 34% 30.05 in 10.0 mi NW 12.7 mph 20.7 mph N/A   Scattered Clouds
3:52 PM 89.1 °F 87.1 °F 55.0 °F 31% 30.02 in 10.0 mi NNW 8.1 mph 16.1 mph N/A   Scattered Clouds
4:52 PM 88.0 °F 86.5 °F 55.9 °F 34% 30.01 in 10.0 mi NW 9.2 mph - N/A   Scattered Clouds
5:52 PM 89.1 °F 86.7 °F 53.1 °F 29% 30.01 in 10.0 mi NNW 10.4 mph - N/A   Scattered Clouds
6:52 PM 87.1 °F 85.1 °F 54.0 °F 32% 30.01 in 10.0 mi WNW 10.4 mph - N/A   Mostly Cloudy
7:52 PM 84.2 °F 83.0 °F 55.4 °F 37% 30.04 in 10.0 mi West 6.9 mph - N/A   Partly Cloudy
8:52 PM 82.9 °F 82.0 °F 55.0 °F 38% 30.01 in 10.0 mi NW 5.8 mph - N/A   Partly Cloudy
9:52 PM 82.0 °F 81.6 °F 55.9 °F 41% 30.02 in 10.0 mi NNW 5.8 mph - N/A   Partly Cloudy
10:52 PM 82.0 °F 81.6 °F 55.9 °F 41% 30.04 in 10.0 mi North 5.8 mph - N/A   Partly Cloudy
11:52 PM 77.0 °F - 59.0 °F 54% 30.06 in 10.0 mi NNW 4.6 mph - N/A   Partly Cloudy